Glendive, MT

10:16 AM MST on February 12, 2016 (GMT -0700)
Dawson Community

Weather History for KGDV - December, 2014

Change the Weather History Date:

Thursday, December 25, 2014

  Actual Average Record
Temperature  
Mean Temperature 22 °F -  
Max Temperature 28 °F 25 °F 48 °F (1999)
Min Temperature 17 °F 7 °F -25 °F (1996)
Degree Days  
Heating Degree Days 42    
Moisture  
Dew Point 18 °F    
Average Humidity 80    
Maximum Humidity 93    
Minimum Humidity 69    
Precipitation  
Precipitation 0.00 in - - ()
Sea Level Pressure  
Sea Level Pressure 29.87 in    
Wind  
Wind Speed 11 mph (NNW)    
Max Wind Speed 17 mph    
Max Gust Speed 23 mph    
Visibility 10 miles    
Events      
Averages and records for this station are not official NWS values.
T = Trace of Precipitation, MM = Missing Value Source: NWS Daily Summary

Daily Weather History Graph

Daily Weather History Graph

Search for Another Location

Airport or City:

Trip Planner

Search our weather history database for the weather conditions in past years. The results will help you decide how hot, cold, wet, or windy it might be!

Date:

Astronomy

Dec. 25, 2014 Rise Set
Actual Time 7:44 AM MST 4:14 PM MST
Civil Twilight 7:08 AM MST 4:50 PM MST
Nautical Twilight 6:29 AM MST 5:29 PM MST
Astronomical Twilight 5:52 AM MST 6:06 PM MST
Moon 10:04 AM MST (12/25) 9:07 PM MST (12/25)
Length of Visible Light 9h 41m
Length of Day
8h 30m
Waxing Crescent, 18% of the Moon is Illuminated
Dec 25
Waxing Crescent
Dec 28
First Quarter
Jan 4
Full
Jan 13
Last Quarter
Jan 20
New

Hourly Weather History & Observations

Time (MST) Temp. Windchill Dew Point Humidity Pressure Visibility Wind Dir Wind Speed Gust Speed Precip Events Conditions
12:15 AM 28.4 °F 18.0 °F 26.6 °F 93% 29.56 in 10.0 mi NW 12.7 mph - N/A   Clear
12:35 AM 28.4 °F 18.5 °F 24.8 °F 86% 29.57 in 10.0 mi NNW 11.5 mph - N/A   Clear
12:55 AM 28.4 °F 19.7 °F 24.8 °F 86% 29.57 in 10.0 mi North 9.2 mph - N/A   Clear
1:15 AM 26.6 °F 18.2 °F 23.0 °F 86% 29.58 in 10.0 mi North 8.1 mph - N/A   Clear
1:35 AM 26.6 °F 16.8 °F 23.0 °F 86% 29.59 in 10.0 mi NW 10.4 mph - N/A   Clear
1:55 AM 26.6 °F 16.8 °F 23.0 °F 86% 29.61 in 10.0 mi NNW 10.4 mph - N/A   Clear
2:15 AM 26.6 °F 16.2 °F 21.2 °F 80% 29.63 in 10.0 mi NNW 11.5 mph - N/A   Clear
2:35 AM 24.8 °F 16.9 °F 21.2 °F 86% 29.64 in 10.0 mi North 6.9 mph - N/A   Mostly Cloudy
2:55 AM 26.6 °F 15.7 °F 21.2 °F 80% 29.65 in 10.0 mi North 12.7 mph 16.1 mph N/A   Overcast
3:15 AM 26.6 °F 16.2 °F 21.2 °F 80% 29.65 in 10.0 mi North 11.5 mph - N/A   Overcast
3:35 AM 24.8 °F 14.6 °F 19.4 °F 80% 29.66 in 10.0 mi NNW 10.4 mph - N/A   Mostly Cloudy
3:55 AM 24.8 °F 14.6 °F 21.2 °F 86% 29.67 in 10.0 mi NW 10.4 mph - N/A   Scattered Clouds
4:15 AM 24.8 °F 14.0 °F 19.4 °F 80% 29.67 in 10.0 mi NNW 11.5 mph - N/A   Mostly Cloudy
4:35 AM 24.8 °F 16.1 °F 21.2 °F 86% 29.69 in 10.0 mi NNW 8.1 mph - N/A   Overcast
4:55 AM 24.8 °F 14.6 °F 21.2 °F 86% 29.70 in 10.0 mi NW 10.4 mph - N/A   Overcast
5:15 AM 24.8 °F 15.3 °F 21.2 °F 86% 29.71 in 10.0 mi NW 9.2 mph - N/A   Overcast
5:35 AM 24.8 °F 14.6 °F 21.2 °F 86% 29.72 in 10.0 mi NW 10.4 mph - N/A   Overcast
5:55 AM 26.6 °F 16.8 °F 21.2 °F 80% 29.73 in 10.0 mi NW 10.4 mph - N/A   Overcast
6:15 AM 26.6 °F 16.2 °F 21.2 °F 80% 29.74 in 10.0 mi NNW 11.5 mph - N/A   Overcast
6:35 AM 26.6 °F 17.5 °F 21.2 °F 80% 29.76 in 10.0 mi NW 9.2 mph - N/A   Overcast
6:55 AM 26.6 °F 16.8 °F 21.2 °F 80% 29.76 in 10.0 mi NW 10.4 mph - N/A   Overcast
7:15 AM 26.6 °F 15.2 °F 21.2 °F 80% 29.77 in 10.0 mi NW 13.8 mph - N/A   Overcast
7:35 AM 26.6 °F 15.2 °F 21.2 °F 80% 29.77 in 10.0 mi NW 13.8 mph - N/A   Overcast
7:55 AM 26.6 °F 15.2 °F 21.2 °F 80% 29.78 in 10.0 mi NNW 13.8 mph - N/A   Overcast
8:15 AM 26.6 °F 16.2 °F 19.4 °F 74% 29.80 in 10.0 mi NNW 11.5 mph - N/A   Overcast
8:35 AM 24.8 °F 11.5 °F 19.4 °F 80% 29.81 in 10.0 mi North 17.3 mph 23.0 mph N/A   Overcast
8:55 AM 24.8 °F 11.5 °F 17.6 °F 74% 29.83 in 10.0 mi North 17.3 mph - N/A   Overcast
9:15 AM 24.8 °F 12.4 °F 19.4 °F 80% 29.84 in 10.0 mi North 15.0 mph - N/A   Overcast
9:35 AM 24.8 °F 11.9 °F 17.6 °F 74% 29.85 in 10.0 mi North 16.1 mph 23.0 mph N/A   Overcast
9:55 AM 24.8 °F 11.9 °F 17.6 °F 74% 29.86 in 10.0 mi NNW 16.1 mph 21.9 mph N/A   Overcast
10:15 AM 24.8 °F 12.9 °F 17.6 °F 74% 29.87 in 10.0 mi NNW 13.8 mph 23.0 mph N/A   Overcast
10:35 AM 24.8 °F 12.4 °F 17.6 °F 74% 29.88 in 10.0 mi North 15.0 mph 20.7 mph N/A   Overcast
10:55 AM 24.8 °F 13.4 °F 17.6 °F 74% 29.88 in 10.0 mi NNW 12.7 mph - N/A   Overcast
11:15 AM 24.8 °F 14.0 °F 17.6 °F 74% 29.88 in 10.0 mi NNW 11.5 mph - N/A   Overcast
11:35 AM 24.8 °F 14.6 °F 17.6 °F 74% 29.88 in 10.0 mi NNW 10.4 mph 17.3 mph N/A   Overcast
11:55 AM 24.8 °F 13.4 °F 17.6 °F 74% 29.89 in 10.0 mi NNW 12.7 mph - N/A   Overcast
12:15 PM 24.8 °F 14.0 °F 17.6 °F 74% 29.89 in 10.0 mi North 11.5 mph - N/A   Overcast
12:35 PM 24.8 °F 14.0 °F 17.6 °F 74% 29.89 in 10.0 mi North 11.5 mph - N/A   Overcast
12:55 PM 24.8 °F 12.4 °F 17.6 °F 74% 29.90 in 10.0 mi NNW 15.0 mph - N/A   Overcast
1:15 PM 24.8 °F 13.4 °F 17.6 °F 74% 29.90 in 10.0 mi NNW 12.7 mph 19.6 mph N/A   Overcast
1:35 PM 24.8 °F 14.0 °F 17.6 °F 74% 29.92 in 10.0 mi NNW 11.5 mph 19.6 mph N/A   Overcast
1:55 PM 24.8 °F 12.4 °F 15.8 °F 69% 29.93 in 10.0 mi NNW 15.0 mph - N/A   Overcast
2:15 PM 23.0 °F 11.7 °F 17.6 °F 80% 29.94 in 10.0 mi NW 11.5 mph - N/A   Overcast
2:35 PM 23.0 °F 11.7 °F 17.6 °F 80% 29.94 in 10.0 mi NW 11.5 mph - N/A   Overcast
2:55 PM 23.0 °F 10.6 °F 15.8 °F 74% 29.95 in 10.0 mi NW 13.8 mph - N/A   Overcast
3:15 PM 23.0 °F 12.4 °F 15.8 °F 74% 29.96 in 10.0 mi NNW 10.4 mph - N/A   Overcast
3:35 PM 23.0 °F 11.7 °F 15.8 °F 74% 29.97 in 10.0 mi North 11.5 mph - N/A   Overcast
3:55 PM 23.0 °F 12.4 °F 15.8 °F 74% 29.97 in 10.0 mi NNW 10.4 mph - N/A   Overcast
4:15 PM 23.0 °F 13.1 °F 17.6 °F 80% 29.97 in 10.0 mi North 9.2 mph - N/A   Overcast
4:35 PM 23.0 °F 13.1 °F 17.6 °F 80% 29.98 in 10.0 mi North 9.2 mph - N/A   Overcast
4:55 PM 21.2 °F 9.5 °F 17.6 °F 86% 29.99 in 10.0 mi North 11.5 mph - N/A   Overcast
5:15 PM 21.2 °F 10.9 °F 15.8 °F 80% 30.00 in 10.0 mi NNW 9.2 mph - N/A   Overcast
5:35 PM 21.2 °F 12.6 °F 15.8 °F 80% 30.00 in 10.0 mi NNW 6.9 mph - N/A   Overcast
5:55 PM 21.2 °F 12.6 °F 15.8 °F 80% 30.01 in 10.0 mi North 6.9 mph - N/A   Overcast
6:15 PM 21.2 °F 11.7 °F 15.8 °F 80% 30.01 in 10.0 mi NNW 8.1 mph - N/A   Overcast
6:35 PM 21.2 °F 9.5 °F 15.8 °F 80% 30.01 in 10.0 mi NNW 11.5 mph - N/A   Overcast
6:55 PM 21.2 °F 11.7 °F 15.8 °F 80% 30.02 in 10.0 mi NNW 8.1 mph - N/A   Overcast
7:15 PM 21.2 °F 11.7 °F 15.8 °F 80% 30.03 in 10.0 mi NNW 8.1 mph - N/A   Overcast
7:35 PM 21.2 °F 9.5 °F 15.8 °F 80% 30.04 in 10.0 mi NW 11.5 mph - N/A   Overcast
7:55 PM 21.2 °F 10.1 °F 15.8 °F 80% 30.04 in 10.0 mi NW 10.4 mph - N/A   Overcast
8:15 PM 21.2 °F 12.6 °F 15.8 °F 80% 30.05 in 10.0 mi NW 6.9 mph - N/A   Overcast
8:35 PM 21.2 °F 10.1 °F 15.8 °F 80% 30.05 in 10.0 mi NNW 10.4 mph - N/A   Overcast
8:55 PM 19.4 °F 7.2 °F 14.0 °F 80% 30.05 in 10.0 mi NNW 11.5 mph - N/A   Overcast
9:15 PM 19.4 °F 12.8 °F 14.0 °F 80% 30.06 in 10.0 mi North 4.6 mph - N/A   Overcast
9:35 PM 19.4 °F 14.3 °F 14.0 °F 80% 30.06 in 10.0 mi North 3.5 mph - N/A   Overcast
9:55 PM 19.4 °F 14.3 °F 14.0 °F 80% 30.07 in 10.0 mi North 3.5 mph - N/A   Overcast
10:15 PM 19.4 °F - 14.0 °F 80% 30.07 in 10.0 mi Calm Calm - N/A   Overcast
10:35 PM 19.4 °F - 15.8 °F 86% 30.08 in 10.0 mi Calm Calm - N/A   Overcast
10:55 PM 19.4 °F 14.3 °F 15.8 °F 86% 30.09 in 10.0 mi NNW 3.5 mph - N/A   Overcast
11:15 PM 19.4 °F 14.3 °F 14.0 °F 80% 30.08 in 10.0 mi East 3.5 mph - N/A   Mostly Cloudy
11:35 PM 17.6 °F - 12.2 °F 79% 30.08 in 10.0 mi Calm Calm - N/A   Scattered Clouds
11:55 PM 17.6 °F 12.3 °F 12.2 °F 79% 30.08 in 10.0 mi SSW 3.5 mph - N/A   Mostly Cloudy